Notices

What's New in latest Release from April 7th, 2021:

- Updated Glossary, including Speed of Maximum Gust, and Total Hourly Precipitation

- Updated national and regional climate services offices contacts and prices information

- Addition of station inventory lists for 1981-2010, 1971-2000, and 1961-1990 Normals.

If you haven't already, please take our survey and provide feedback about our website: https://eccc.sondage-survey.ca/f/LanguageSelection.aspx?s=442ca660-fcf1-47c0-95a9-59707d6fd709

Hourly Data Report for March 02, 2020

MIRAMICHI RCS
NEW BRUNSWICK
Current Station Operator: ECCC - MSC

47°00'34.000" N
65°27'54.000" W
33.00 m
8100989
71744
ACQ

Download Data

Hourly Data (March 2020)
Hourly Data Report for March 2, 2020
TIME
LST
Temp Definition
°C
Dew Point Definition
°C
Rel Hum Definition
%
Precip. Amount Definition
mm

Wind Dir Definition
10's deg

Wind Spd Definition
km/h
Visibility Definition
km
Stn Press Definition
kPa
Hmdx Definition


Wind Chill Definition


Weather Definition


00:00 -4.6 -6.4 87 LegendMM 33 5   101.15   -7 LegendNANA
01:00 -6.2 -7.9 87 LegendMM 32 4   101.18   -8 LegendNANA
02:00 -6.9 -9.3 83 LegendMM 33 5   101.26   -9 LegendNANA
03:00 -8.0 -10.3 83 LegendMM 32 6   101.30   -11 LegendNANA
04:00 -12.2 -15.5 77 LegendMM 10 3   101.29   -14 LegendNANA
05:00 -15.2 -17.0 87 LegendMM 27 6   101.39   -19 LegendNANA
06:00 -15.3 -16.7 89 LegendMM 26 5   101.43   -19 LegendNANA
07:00 -14.8 -16.0 90 LegendMM 26 6   101.47   -19 LegendNANA
08:00 -16.4 -17.9 88 LegendMM 26 6   101.52   -21 LegendNANA
09:00 -11.7 -13.7 85 LegendMM 25 7   101.50   -16 LegendNANA
10:00 -6.2 -11.0 68 LegendMM   0   101.47     LegendNANA
11:00 -4.3 -8.9 70 LegendMM 17 11   101.41   -9 LegendNANA
12:00 -2.1 -6.6 71 LegendMM 20 12   101.37   -6 LegendNANA
13:00 -1.8 -7.0 67 LegendMM 20 17   101.26   -7 LegendNANA
14:00 -1.0 -6.9 64 LegendMM 20 19   101.14   -6 LegendNANA
15:00 -0.7 -8.4 56 LegendMM 19 24   101.06   -7 LegendNANA
16:00 -0.1 -8.7 52 LegendMM 19 22   100.97   -6 LegendNANA
17:00 -0.4 -7.3 60 LegendMM 19 11   100.90   -4 LegendNANA
18:00 -0.6 -6.2 66 LegendMM 19 12   100.86   -5 LegendNANA
19:00 -1.0 -6.3 67 LegendMM 21 20   100.88   -7 LegendNANA
20:00 -1.9 -5.5 77 LegendMM 20 16   100.80   -7 LegendNANA
21:00 -2.1 -4.9 81 LegendMM 18 13   100.70   -7 LegendNANA
22:00 -2.0 -4.1 85 LegendMM 17 13   100.60   -6 LegendNANA
23:00 -2.2 -3.0 94 LegendMM 18 11   100.47   -6 LegendNANA

Notes on Data Quality.

Legend

  • E = Estimated
  • M = Missing
  • NA = Not Available*
  • [empty] = Indicates an unobserved value
Date modified: